Location: Newark
(48.1500°N, 13.1167°E)
Time: 12:07:16
(UTC+00:00)

ISS - Visible Passes

Search period start: 03 December 2022 00:00
Search period end: 13 December 2022 00:00
Orbit: 414 x 420 km, 51.6° (Epoch: 03 December)

Date Brightness Start Highest point End Pass type
(mag) Time Alt. Az. Time Alt. Az. Time Alt. Az.
03 Dec -3.6 16:52:26 10° WNW 16:55:46 72° SSW 16:57:24 27° SE visible
03 Dec -0.2 18:30:09 10° W 18:30:21 11° WSW 18:30:21 11° WSW visible
04 Dec -3.8 16:04:18 10° WNW 16:07:39 82° NNE 16:11:01 10° ESE visible
04 Dec -1.6 17:41:28 10° W 17:44:07 22° SW 17:44:45 21° SSW visible
05 Dec -2.1 16:53:04 10° W 16:56:07 33° SW 16:59:10 10° SSE visible
06 Dec -2.8 16:04:47 10° WNW 16:08:03 50° SSW 16:11:18 10° SE visible
07 Dec -0.7 16:54:11 10° W 16:56:12 15° SW 16:58:13 10° S visible
08 Dec -1.1 16:05:27 10° W 16:08:11 23° SW 16:10:53 10° SSE visible
